Flag for Kazakhstan Weather past 2 weeks in Astana, Kazakhstan

Now
36 °F

Sunny.


Feels Like: 27 °F
Forecast: 28 / 45 °F
Wind: 13 mph from Southwest

Location: Astana

Current Time: Oct 22, 2014 at 10:05:25 AM

Latest Report: Oct 22, 2014 at 9:30 AM


Visibility: 10 mi

Pressure: 30.09 "Hg

Humidity: 75%

Dew point: 28 °F

Location of AstanaLocation

Historic Weather in Astana — Graph

°F

Astana temperature yesterday

Maximum temperature yesterday: 34 °F (at 4:00 PM)
Minimum temperature yesterday: 21 °F (at 7:30 AM)
Average temperature yesterday: 30 °F

Past Weeks' High & Low Weather Summary

 TemperatureHumidityPressure
High68 °F (Oct 19, 3:30 PM)100% (Oct 8, 11:30 AM)30.60 "Hg (Oct 8, 11:30 AM)
Low19 °F (Oct 9, 6:00 AM)19% (Oct 17, 4:00 PM)29.30 "Hg (Oct 20, 6:30 PM)
Average43 °F72%30.00 "Hg
* Reported Oct 7 8:00 AM — Oct 22 8:30 AM, Astana, Weather by CustomWeather, © 2014

Note: Actual official high and low records may vary slightly from our data, if they occured in-between our weather recording intervals... More about our weather records

Advertising

Astana weather history for previous 24 hours

 ConditionsComfort  
Time TempWeatherWind HumidityBarometerVisibility
8:30 AM
Oct 22
34 °FSunny.10 mph81%30.09 "Hg10 mi
8:00 AM34 °FSunny.10 mph81%30.09 "Hg10 mi
7:30 AM34 °FClear.13 mph81%30.09 "Hg10 mi
7:00 AM34 °FClear.15 mph81%30.09 "Hg10 mi
6:30 AM34 °FClear.13 mph81%30.09 "Hg10 mi
6:00 AM34 °FClear.13 mph81%30.09 "Hg10 mi
5:30 AM34 °FClear.13 mph81%30.12 "Hg10 mi
5:00 AM34 °FClear.13 mph81%30.09 "Hg10 mi
4:30 AM34 °FClear.10 mph81%30.09 "Hg10 mi
4:00 AM34 °FClear.13 mph81%30.12 "Hg10 mi
3:30 AM34 °FClear.10 mph81%30.09 "Hg10 mi
3:00 AM34 °FClear.13 mph81%30.12 "Hg10 mi
2:30 AM34 °FClear.13 mph81%30.12 "Hg10 mi
2:00 AM34 °FClear.13 mph81%30.12 "Hg10 mi
1:30 AM34 °FClear.13 mph81%30.12 "Hg10 mi
1:00 AM34 °FClear.13 mph81%30.12 "Hg10 mi
12:30 AM34 °FMostly cloudy.10 mph81%30.12 "HgN/A
12:00 AM34 °FMostly cloudy.10 mph81%30.15 "HgN/A
11:30 PM
Oct 21
34 °FOvercast.10 mph75%30.15 "HgN/A
11:00 PM34 °FClear.8 mph70%30.15 "Hg10 mi
10:30 PM32 °FClear.6 mph80%30.15 "Hg10 mi
10:00 PM30 °FClear.6 mph80%30.15 "Hg10 mi
9:30 PM30 °FClear.6 mph80%30.15 "Hg10 mi
9:00 PM30 °FClear.8 mph80%30.15 "Hg10 mi
8:30 PM28 °FClear.6 mph80%30.15 "Hg10 mi
8:00 PM28 °FPassing clouds.6 mph74%30.15 "Hg5 mi
7:30 PM32 °FClear.8 mph69%30.15 "Hg10 mi
7:00 PM32 °FClear.8 mph64%30.15 "Hg10 mi
6:30 PM32 °FPassing clouds.6 mph64%30.15 "HgN/A
6:00 PM34 °FBroken clouds.15 mph60%30.12 "HgN/A
5:30 PM34 °FBroken clouds.15 mph60%30.12 "HgN/A
5:00 PM34 °FBroken clouds.22 mph60%30.12 "HgN/A
4:30 PM34 °FBroken clouds.20 mph56%30.12 "HgN/A
4:00 PM34 °FBroken clouds.22 mph60%30.12 "HgN/A
3:30 PM32 °FBroken clouds.22 mph60%30.12 "HgN/A
3:00 PM32 °FPartly sunny.22 mph60%30.12 "HgN/A
2:30 PM32 °FPartly sunny.22 mph60%30.12 "HgN/A
2:00 PM32 °FPartly sunny.20 mph60%30.12 "HgN/A
1:30 PM32 °FPartly sunny.24 mph55%30.12 "HgN/A
1:00 PM32 °FBroken clouds.24 mph60%30.12 "HgN/A
12:30 PM30 °FBroken clouds.22 mph59%30.12 "HgN/A
12:00 PM28 °FBroken clouds.22 mph69%30.09 "HgN/A
11:30 AM28 °FBroken clouds.17 mph69%30.09 "HgN/A
11:00 AM28 °FPartly sunny.22 mph64%30.09 "HgN/A
10:30 AM27 °FPartly sunny.20 mph69%30.09 "HgN/A
10:00 AM27 °FBroken clouds.17 mph69%30.07 "HgN/A
Weather by CustomWeather, © 2014

See weather overviewHow to use our weather pages